Вернуться в каталог

IRIDIUM 33 DEB

АктивенPO
NORAD 46979·DEBRIS·🇺🇸 United States

Запущен Sep 14, 1997 с Baikonur Cosmodrome

Loading…

Ближайшие Пролёты (ближайшие 24 часа)

TLE

УстаревающийSource: Space-Track

Эпоха: Sep 5, 2026, 19:29 UTC

1 46979U 97051ACM 26248.81219839  .00057352  00000-0  23678-2 0  9990
2 46979  86.3134 281.1039 0007714 340.3269  19.7677 15.23765769394466

Отслеживайте IRIDIUM 33 DEB в реальном времени с AllMySat

Download on the App Store